World > North America > United States > Oregon > Westfall

Hourly Westfall, OR Regional Weather

Feedback E-mail the Weather

Quick WX

Westfall, OR Weather Maps

°F °C°F °C
Westfall Weather Map
UTC Time: 8/17/2022, 01:30
Your Time:

Westfall, OR Regional Weather

Expires:202208170200;;168203
ASUS46 KPQR 170110
RWROR 

OREGON REGIONAL WEATHER ROUNDUP
NATIONAL WEATHER SERVICE PORTLAND OR
600 PM PDT TUE AUG 16 2022

NOTE: "FAIR" INDICATES FEW OR NO CLOUDS BELOW 12,000 FEET WITH
NO SIGNIFICANT WEATHER AND/OR OBSTRUCTIONS TO VISIBILITY.


ORZ029>031-041-044-049-050-061>064-502-503-505>511-170200-
EASTERN OREGON

  
CITY           SKY/WX    TMP DP  RH WIND       PRES   REMARKS
MADRAS         SUNNY     93  37  14 N13       29.98S                  
REDMOND        SUNNY     95  39  14 NW14      29.98F HX  91           
BEND           SUNNY     93  34  12 N14       30.02F                  
PRINEVILLE     SUNNY     93  32  11 N12G17    29.99F                  
KLAMATH FALLS  MOSUNNY   94  38  14 SE9       29.99F                  
LAKEVIEW       PTSUNNY   90  34  13 SW12      30.08S                  
HERMISTON      SUNNY     99  43  14 NE6       29.86F HX  95           
PENDLETON      SUNNY     97  40  14 N10       29.91F HX  92           
JOHN DAY       SUNNY     97  35  11 N12       29.99S HX  91           
MEACHAM        SUNNY     84  42  22 CALM      30.07S                  
LA GRANDE      SUNNY     96  48  19 N9        29.96S HX  92           
BAKER CITY     SUNNY     91  45  20 NW9       29.99F                  
BURNS          SUNNY     97  26   8 E3        30.02F HX  91           
ROME             N/A    101  46  15 NE8       29.97F HX  97           
ONTARIO        SUNNY    103  42  12 CALM      29.88F HX  98           
$$


OTHER REGIONAL REPORTS
  
CITY           SKY/WX    TMP DP  RH WIND       PRES   REMARKS
SEATTLE        MOSUNNY   81  54  39 NW10      30.02S                  
SPOKANE        MOSUNNY   94  37  13 CALM      29.98F                  
VANCOUVER BC   MOSUNNY   73  66  78 W9        30.02F                  
PRINCE GEORGE  PTSUNNY   72  54  53 CALM      30.12F                  
DAWSON CREEK   SUNNY     77  48  36 W13G18    30.03R                  
WHITEHORSE     CLOUDY    63  41  45 SE14G23   29.91S                  
BOISE          SUNNY    100  29   8 NW9       29.91F HX  93           
REDDING        SUNNY    108  24   5 VRB3      29.68F HX 100           
SAN FRANCISCO  SUNNY     76  53  44 NW15      29.73S                  

$$

  

SKY/WX - Weather  TMP - Temperature  DP - Dew Point  RH - Humidity
WIND - Wind Direction/Speed PRES - Barometric Pressure VSB - Visibility
WCI - Wind Chill Index E13G22 Wind - East Wind 13 mph/Gusts of 22 mph

Trending Headlines

Westfall Radar Loop



Westfall Quick Facts


National Two Day Weather Forecast


E-mail the Westfall Weather Forecast

Voice your opinion or tell us about page issues...